Time,TemperatureF,DewpointF,PressureIn,WindDirection,WindDirectionDegrees,WindSpeedMPH,WindSpeedGustMPH,Humidity,HourlyPrecipIn,Conditions,Clouds,dailyrainin,SoftwareType,DateUTC
2013-08-16 00:01:00,65.4,54.2,30.07,West,261,0.0,0.0,67,0.00,,,0.00,Wunderground v.1.15,2013-08-16 04:01:00,
2013-08-16 00:02:00,65.4,54.2,30.07,West,261,0.0,0.0,67,0.00,,,0.00,Wunderground v.1.15,2013-08-16 04:02:00,
2013-08-16 00:03:00,65.4,54.2,30.07,West,261,0.0,0.0,67,0.00,,,0.00,Wunderground v.1.15,2013-08-16 04:03:00,
2013-08-16 00:09:00,65.3,54.1,30.07,West,260,0.0,0.0,67,0.00,,,0.00,Wunderground v.1.15,2013-08-16 04:09:00,
2013-08-16 00:15:00,65.2,54.0,30.07,West,260,0.0,0.0,67,0.00,,,0.00,Wunderground v.1.15,2013-08-16 04:15:00,
2013-08-16 00:17:00,65.1,53.9,30.07,West,261,0.0,0.0,67,0.00,,,0.00,Wunderground v.1.15,2013-08-16 04:17:00,
2013-08-16 00:23:00,64.9,53.7,30.07,West,261,0.0,0.0,67,0.00,,,0.00,Wunderground v.1.15,2013-08-16 04:23:00,
2013-08-16 00:29:00,64.8,54.0,30.07,West,261,0.0,0.0,68,0.00,,,0.00,Wunderground v.1.15,2013-08-16 04:29:00,
2013-08-16 00:34:00,64.7,53.9,30.07,West,260,0.0,0.0,68,0.00,,,0.00,Wunderground v.1.15,2013-08-16 04:34:00,
2013-08-16 00:39:00,64.5,53.7,30.07,West,260,0.0,0.0,68,0.00,,,0.00,Wunderground v.1.15,2013-08-16 04:39:00,
2013-08-16 00:45:00,64.4,54.0,30.08,West,261,0.0,2.0,69,0.00,,,0.00,Wunderground v.1.15,2013-08-16 04:45:00,
2013-08-16 00:51:00,64.3,53.9,30.08,West,261,0.0,0.0,69,0.00,,,0.00,Wunderground v.1.15,2013-08-16 04:51:00,
2013-08-16 00:56:00,64.1,53.7,30.08,West,261,0.0,0.0,69,0.00,,,0.00,Wunderground v.1.15,2013-08-16 04:56:00,
2013-08-16 01:01:00,64.0,53.6,30.08,West,261,0.0,0.0,69,0.00,,,0.00,Wunderground v.1.15,2013-08-16 05:01:00,
2013-08-16 01:07:00,63.8,53.8,30.08,West,261,2.0,2.0,70,0.00,,,0.00,Wunderground v.1.15,2013-08-16 05:07:00,
2013-08-16 01:12:00,63.7,53.7,30.08,West,261,0.0,1.0,70,0.00,,,0.00,Wunderground v.1.15,2013-08-16 05:12:00,
2013-08-16 01:20:00,63.6,54.0,30.07,West,261,1.0,1.0,71,0.00,,,0.00,Wunderground v.1.15,2013-08-16 05:20:00,
2013-08-16 01:25:00,63.5,53.9,30.07,West,261,0.0,2.0,71,0.00,,,0.00,Wunderground v.1.15,2013-08-16 05:25:00,
2013-08-16 01:31:00,63.4,53.8,30.07,West,261,3.0,3.0,71,0.00,,,0.00,Wunderground v.1.15,2013-08-16 05:31:00,
2013-08-16 01:36:00,63.4,53.8,30.07,WNW,290,2.0,6.0,71,0.00,,,0.00,Wunderground v.1.15,2013-08-16 05:36:00,
2013-08-16 01:41:00,63.3,53.7,30.07,West,275,0.0,1.0,71,0.00,,,0.00,Wunderground v.1.15,2013-08-16 05:41:00,
2013-08-16 01:47:00,63.3,54.1,30.07,West,271,0.0,3.0,72,0.00,,,0.00,Wunderground v.1.15,2013-08-16 05:47:00,
2013-08-16 01:52:00,63.2,54.0,30.07,West,271,0.0,0.0,72,0.00,,,0.00,Wunderground v.1.15,2013-08-16 05:52:00,
2013-08-16 01:57:00,63.1,53.9,30.08,West,271,1.0,1.0,72,0.00,,,0.00,Wunderground v.1.15,2013-08-16 05:57:00,
2013-08-16 02:02:00,63.0,53.8,30.08,West,271,1.0,1.0,72,0.00,,,0.00,Wunderground v.1.15,2013-08-16 06:02:00,
2013-08-16 02:07:00,62.9,53.7,30.08,West,271,0.0,2.0,72,0.00,,,0.00,Wunderground v.1.15,2013-08-16 06:07:00,
2013-08-16 02:12:00,62.8,53.6,30.08,West,271,2.0,3.0,72,0.00,,,0.00,Wunderground v.1.15,2013-08-16 06:12:00,
2013-08-16 02:17:00,62.7,53.9,30.08,West,268,0.0,3.0,73,0.00,,,0.00,Wunderground v.1.15,2013-08-16 06:17:00,
2013-08-16 02:22:00,62.6,53.8,30.07,West,268,0.0,1.0,73,0.00,,,0.00,Wunderground v.1.15,2013-08-16 06:22:00,
2013-08-16 02:27:00,62.6,53.8,30.07,West,268,0.0,1.0,73,0.00,,,0.00,Wunderground v.1.15,2013-08-16 06:27:00,
2013-08-16 02:32:00,62.6,53.8,30.07,West,264,1.0,3.0,73,0.00,,,0.00,Wunderground v.1.15,2013-08-16 06:32:00,
2013-08-16 02:37:00,62.4,53.6,30.07,West,263,0.0,3.0,73,0.00,,,0.00,Wunderground v.1.15,2013-08-16 06:37:00,
2013-08-16 02:42:00,62.3,53.5,30.07,West,264,0.0,0.0,73,0.00,,,0.00,Wunderground v.1.15,2013-08-16 06:42:00,
2013-08-16 02:47:00,62.2,53.4,30.07,West,264,0.0,1.0,73,0.00,,,0.00,Wunderground v.1.15,2013-08-16 06:47:00,
2013-08-16 02:52:00,62.1,53.3,30.07,West,264,0.0,0.0,73,0.00,,,0.00,Wunderground v.1.15,2013-08-16 06:52:00,
2013-08-16 02:57:00,62.0,53.2,30.07,West,264,0.0,0.0,73,0.00,,,0.00,Wunderground v.1.15,2013-08-16 06:57:00,
2013-08-16 03:02:00,61.9,53.1,30.07,West,264,0.0,0.0,73,0.00,,,0.00,Wunderground v.1.15,2013-08-16 07:02:00,
2013-08-16 03:07:00,61.8,53.1,30.07,West,264,0.0,0.0,73,0.00,,,0.00,Wunderground v.1.15,2013-08-16 07:07:00,
2013-08-16 03:12:00,61.8,53.1,30.07,West,264,0.0,0.0,73,0.00,,,0.00,Wunderground v.1.15,2013-08-16 07:12:00,
2013-08-16 03:17:00,61.7,53.3,30.07,West,264,0.0,0.0,74,0.00,,,0.00,Wunderground v.1.15,2013-08-16 07:17:00,
2013-08-16 03:22:00,61.6,53.2,30.07,West,264,0.0,1.0,74,0.00,,,0.00,Wunderground v.1.15,2013-08-16 07:22:00,
2013-08-16 03:27:00,61.6,53.2,30.07,West,263,0.0,1.0,74,0.00,,,0.00,Wunderground v.1.15,2013-08-16 07:27:00,
2013-08-16 03:32:00,61.5,53.1,30.07,West,263,0.0,0.0,74,0.00,,,0.00,Wunderground v.1.15,2013-08-16 07:32:00,
2013-08-16 03:37:00,61.5,53.1,30.07,West,264,0.0,0.0,74,0.00,,,0.00,Wunderground v.1.15,2013-08-16 07:37:00,
2013-08-16 03:43:00,61.4,52.7,30.07,West,264,0.0,0.0,73,0.00,,,0.00,Wunderground v.1.15,2013-08-16 07:43:00,
2013-08-16 03:48:00,61.3,52.9,30.07,West,263,0.0,0.0,74,0.00,,,0.00,Wunderground v.1.15,2013-08-16 07:48:00,
2013-08-16 03:53:00,61.3,52.9,30.07,West,264,0.0,0.0,74,0.00,,,0.00,Wunderground v.1.15,2013-08-16 07:53:00,
2013-08-16 03:58:00,61.2,52.8,30.07,West,264,0.0,0.0,74,0.00,,,0.00,Wunderground v.1.15,2013-08-16 07:58:00,
2013-08-16 04:03:00,61.2,52.8,30.07,West,264,1.0,3.0,74,0.00,,,0.00,Wunderground v.1.15,2013-08-16 08:03:00,
2013-08-16 04:08:00,61.1,52.7,30.07,West,264,0.0,3.0,74,0.00,,,0.00,Wunderground v.1.15,2013-08-16 08:08:00,
2013-08-16 04:13:00,61.0,52.7,30.07,West,264,0.0,0.0,74,0.00,,,0.00,Wunderground v.1.15,2013-08-16 08:13:00,
2013-08-16 04:18:00,61.0,52.7,30.07,West,263,0.0,1.0,74,0.00,,,0.00,Wunderground v.1.15,2013-08-16 08:18:00,
2013-08-16 04:23:00,60.9,52.6,30.08,West,264,0.0,1.0,74,0.00,,,0.00,Wunderground v.1.15,2013-08-16 08:23:00,
2013-08-16 04:28:00,60.9,52.6,30.07,West,264,2.0,2.0,74,0.00,,,0.00,Wunderground v.1.15,2013-08-16 08:28:00,
2013-08-16 04:33:00,60.8,52.5,30.07,West,264,0.0,2.0,74,0.00,,,0.00,Wunderground v.1.15,2013-08-16 08:33:00,
2013-08-16 04:38:00,60.7,52.7,30.07,West,264,1.0,2.0,75,0.00,,,0.00,Wunderground v.1.15,2013-08-16 08:38:00,
2013-08-16 04:43:00,60.6,52.6,30.07,West,264,0.0,1.0,75,0.00,,,0.00,Wunderground v.1.15,2013-08-16 08:43:00,
2013-08-16 04:48:00,60.5,52.5,30.07,West,263,0.0,1.0,75,0.00,,,0.00,Wunderground v.1.15,2013-08-16 08:48:00,
2013-08-16 04:53:00,60.4,52.4,30.07,West,264,0.0,0.0,75,0.00,,,0.00,Wunderground v.1.15,2013-08-16 08:53:00,
2013-08-16 04:58:00,60.3,52.3,30.07,West,264,0.0,1.0,75,0.00,,,0.00,Wunderground v.1.15,2013-08-16 08:58:00,
2013-08-16 05:03:00,60.2,52.2,30.07,West,264,0.0,0.0,75,0.00,,,0.00,Wunderground v.1.15,2013-08-16 09:03:00,
2013-08-16 05:08:00,60.2,52.2,30.07,West,264,0.0,0.0,75,0.00,,,0.00,Wunderground v.1.15,2013-08-16 09:08:00,
2013-08-16 05:13:00,60.1,52.5,30.08,West,264,0.0,0.0,76,0.00,,,0.00,Wunderground v.1.15,2013-08-16 09:13:00,
2013-08-16 05:18:00,60.0,52.4,30.08,West,264,0.0,0.0,76,0.00,,,0.00,Wunderground v.1.15,2013-08-16 09:18:00,
2013-08-16 05:23:00,60.0,52.4,30.08,West,264,0.0,0.0,76,0.00,,,0.00,Wunderground v.1.15,2013-08-16 09:23:00,
2013-08-16 05:28:00,60.0,52.4,30.08,West,264,0.0,0.0,76,0.00,,,0.00,Wunderground v.1.15,2013-08-16 09:28:00,
2013-08-16 05:33:00,59.9,52.3,30.08,West,264,0.0,0.0,76,0.00,,,0.00,Wunderground v.1.15,2013-08-16 09:33:00,
2013-08-16 05:38:00,59.9,52.3,30.08,West,264,2.0,2.0,76,0.00,,,0.00,Wunderground v.1.15,2013-08-16 09:38:00,
2013-08-16 05:43:00,59.8,52.2,30.08,West,263,0.0,0.0,76,0.00,,,0.00,Wunderground v.1.15,2013-08-16 09:43:00,
2013-08-16 05:48:00,59.7,52.1,30.08,West,264,0.0,0.0,76,0.00,,,0.00,Wunderground v.1.15,2013-08-16 09:48:00,
2013-08-16 05:53:00,59.6,52.0,30.08,West,264,0.0,1.0,76,0.00,,,0.00,Wunderground v.1.15,2013-08-16 09:53:00,
2013-08-16 05:58:00,59.6,52.0,30.08,West,263,0.0,1.0,76,0.00,,,0.00,Wunderground v.1.15,2013-08-16 09:58:00,
2013-08-16 06:03:00,59.6,52.0,30.09,West,263,0.0,0.0,76,0.00,,,0.00,Wunderground v.1.15,2013-08-16 10:03:00,
2013-08-16 06:08:00,59.5,51.9,30.09,West,263,0.0,0.0,76,0.00,,,0.00,Wunderground v.1.15,2013-08-16 10:08:00,
2013-08-16 06:13:00,59.5,52.3,30.09,West,264,0.0,0.0,77,0.00,,,0.00,Wunderground v.1.15,2013-08-16 10:13:00,
2013-08-16 06:18:00,59.5,52.3,30.09,West,264,0.0,0.0,77,0.00,,,0.00,Wunderground v.1.15,2013-08-16 10:18:00,
2013-08-16 06:23:00,59.5,52.3,30.09,West,264,0.0,0.0,77,0.00,,,0.00,Wunderground v.1.15,2013-08-16 10:23:00,
2013-08-16 06:28:00,59.6,52.7,30.09,West,263,0.0,0.0,78,0.00,,,0.00,Wunderground v.1.15,2013-08-16 10:28:00,
2013-08-16 06:33:00,59.7,52.8,30.09,West,263,0.0,0.0,78,0.00,,,0.00,Wunderground v.1.15,2013-08-16 10:33:00,
2013-08-16 06:38:00,59.8,52.9,30.09,West,263,0.0,0.0,78,0.00,,,0.00,Wunderground v.1.15,2013-08-16 10:38:00,
2013-08-16 06:43:00,60.0,53.1,30.10,West,263,0.0,0.0,78,0.00,,,0.00,Wunderground v.1.15,2013-08-16 10:43:00,
2013-08-16 06:48:00,60.1,52.9,30.09,West,264,0.0,2.0,77,0.00,,,0.00,Wunderground v.1.15,2013-08-16 10:48:00,
2013-08-16 06:53:00,60.2,53.0,30.10,West,264,0.0,3.0,77,0.00,,,0.00,Wunderground v.1.15,2013-08-16 10:53:00,
2013-08-16 06:58:00,60.3,53.1,30.10,West,264,0.0,4.0,77,0.00,,,0.00,Wunderground v.1.15,2013-08-16 10:58:00,
2013-08-16 07:03:00,60.5,52.9,30.10,West,263,0.0,3.0,76,0.00,,,0.00,Wunderground v.1.15,2013-08-16 11:03:00,
2013-08-16 07:08:00,60.7,53.1,30.10,West,263,0.0,3.0,76,0.00,,,0.00,Wunderground v.1.15,2013-08-16 11:08:00,
2013-08-16 07:13:00,60.8,52.8,30.10,WNW,302,0.0,4.0,75,0.00,,,0.00,Wunderground v.1.15,2013-08-16 11:13:00,
2013-08-16 07:18:00,61.1,53.1,30.10,WSW,254,0.0,4.0,75,0.00,,,0.00,Wunderground v.1.15,2013-08-16 11:18:00,
2013-08-16 07:23:00,61.3,53.3,30.10,WSW,256,1.0,3.0,75,0.00,,,0.00,Wunderground v.1.15,2013-08-16 11:23:00,
2013-08-16 07:28:00,61.5,53.5,30.10,WNW,284,0.0,5.0,75,0.00,,,0.00,Wunderground v.1.15,2013-08-16 11:28:00,
2013-08-16 07:33:00,61.7,53.7,30.10,WNW,286,0.0,4.0,75,0.00,,,0.00,Wunderground v.1.15,2013-08-16 11:33:00,
2013-08-16 07:38:00,62.0,53.6,30.10,WNW,286,0.0,4.0,74,0.00,,,0.00,Wunderground v.1.15,2013-08-16 11:38:00,
2013-08-16 07:43:00,62.2,53.8,30.10,WNW,286,0.0,3.0,74,0.00,,,0.00,Wunderground v.1.15,2013-08-16 11:43:00,
2013-08-16 07:48:00,62.5,54.1,30.10,WNW,284,1.0,3.0,74,0.00,,,0.00,Wunderground v.1.15,2013-08-16 11:48:00,
2013-08-16 07:54:00,62.8,54.0,30.10,WNW,284,1.0,1.0,73,0.00,,,0.00,Wunderground v.1.15,2013-08-16 11:54:00,
2013-08-16 07:58:00,63.1,54.3,30.10,WNW,284,0.0,2.0,73,0.00,,,0.00,Wunderground v.1.15,2013-08-16 11:58:00,
2013-08-16 08:04:00,63.4,54.2,30.10,WNW,285,0.0,2.0,72,0.00,,,0.00,Wunderground v.1.15,2013-08-16 12:04:00,
2013-08-16 08:09:00,63.6,54.4,30.10,West,271,0.0,5.0,72,0.00,,,0.00,Wunderground v.1.15,2013-08-16 12:09:00,
2013-08-16 08:14:00,63.9,54.3,30.10,WSW,253,2.0,5.0,71,0.00,,,0.00,Wunderground v.1.15,2013-08-16 12:14:00,
2013-08-16 08:19:00,64.2,54.2,30.10,WSW,246,2.0,9.0,70,0.00,,,0.00,Wunderground v.1.15,2013-08-16 12:19:00,
2013-08-16 08:24:00,64.5,54.1,30.10,WSW,245,0.0,2.0,69,0.00,,,0.00,Wunderground v.1.15,2013-08-16 12:24:00,
2013-08-16 08:29:00,64.9,54.5,30.10,WSW,254,2.0,5.0,69,0.00,,,0.00,Wunderground v.1.15,2013-08-16 12:29:00,
2013-08-16 08:34:00,65.4,54.2,30.10,West,261,3.0,9.0,67,0.00,,,0.00,Wunderground v.1.15,2013-08-16 12:34:00,
2013-08-16 08:39:00,65.8,54.5,30.09,WSW,244,2.0,9.0,67,0.00,,,0.00,Wunderground v.1.15,2013-08-16 12:39:00,
2013-08-16 08:44:00,66.1,54.4,30.10,NNW,336,3.0,5.0,66,0.00,,,0.00,Wunderground v.1.15,2013-08-16 12:44:00,
2013-08-16 08:49:00,66.5,55.2,30.10,WSW,241,5.0,11.0,67,0.00,,,0.00,Wunderground v.1.15,2013-08-16 12:49:00,
2013-08-16 08:54:00,66.8,54.7,30.09,West,263,9.0,9.0,65,0.00,,,0.00,Wunderground v.1.15,2013-08-16 12:54:00,
2013-08-16 08:59:00,67.2,55.0,30.09,NW,326,4.0,9.0,65,0.00,,,0.00,Wunderground v.1.15,2013-08-16 12:59:00,
2013-08-16 09:04:00,67.6,55.0,30.09,WNW,303,4.0,11.0,64,0.00,,,0.00,Wunderground v.1.15,2013-08-16 13:04:00,
2013-08-16 09:09:00,67.9,54.8,30.09,WNW,283,9.0,11.0,63,0.00,,,0.00,Wunderground v.1.15,2013-08-16 13:09:00,
2013-08-16 09:14:00,68.2,55.1,30.09,NW,319,6.0,12.0,63,0.00,,,0.00,Wunderground v.1.15,2013-08-16 13:14:00,
2013-08-16 09:19:00,68.4,55.7,30.09,West,271,2.0,13.0,64,0.00,,,0.00,Wunderground v.1.15,2013-08-16 13:19:00,
2013-08-16 09:24:00,68.7,56.5,30.10,WSW,238,12.0,12.0,65,0.00,,,0.00,Wunderground v.1.15,2013-08-16 13:24:00,
2013-08-16 09:29:00,68.8,55.7,30.10,West,275,8.0,12.0,63,0.00,,,0.00,Wunderground v.1.15,2013-08-16 13:29:00,
2013-08-16 09:34:00,69.0,55.9,30.10,West,277,2.0,9.0,63,0.00,,,0.00,Wunderground v.1.15,2013-08-16 13:34:00,
2013-08-16 09:39:00,69.2,55.6,30.10,WNW,297,4.0,12.0,62,0.00,,,0.00,Wunderground v.1.15,2013-08-16 13:39:00,
2013-08-16 09:44:00,69.4,55.4,30.10,WSW,257,2.0,16.0,61,0.00,,,0.00,Wunderground v.1.15,2013-08-16 13:44:00,
2013-08-16 09:49:00,69.5,55.9,30.10,West,267,2.0,16.0,62,0.00,,,0.00,Wunderground v.1.15,2013-08-16 13:49:00,
2013-08-16 09:54:00,69.6,56.4,30.10,NNW,346,7.0,9.0,63,0.00,,,0.00,Wunderground v.1.15,2013-08-16 13:54:00,
2013-08-16 09:59:00,69.8,56.2,30.10,NW,309,2.0,14.0,62,0.00,,,0.00,Wunderground v.1.15,2013-08-16 13:59:00,
2013-08-16 10:04:00,70.0,55.9,30.10,NW,314,2.0,12.0,61,0.00,,,0.00,Wunderground v.1.15,2013-08-16 14:04:00,
2013-08-16 10:09:00,70.1,56.5,30.10,WNW,293,4.0,12.0,62,0.00,,,0.00,Wunderground v.1.15,2013-08-16 14:09:00,
2013-08-16 10:14:00,70.2,56.1,30.10,WNW,298,3.0,13.0,61,0.00,,,0.00,Wunderground v.1.15,2013-08-16 14:14:00,
2013-08-16 10:19:00,70.3,56.2,30.10,West,268,9.0,13.0,61,0.00,,,0.00,Wunderground v.1.15,2013-08-16 14:19:00,
2013-08-16 10:24:00,70.6,56.9,30.10,WNW,288,7.0,12.0,62,0.00,,,0.00,Wunderground v.1.15,2013-08-16 14:24:00,
2013-08-16 10:29:00,70.7,57.0,30.10,NW,315,12.0,14.0,62,0.00,,,0.00,Wunderground v.1.15,2013-08-16 14:29:00,
2013-08-16 10:34:00,71.1,56.5,30.10,NNW,327,4.0,14.0,60,0.00,,,0.00,Wunderground v.1.15,2013-08-16 14:34:00,
2013-08-16 10:39:00,71.3,57.6,30.10,North,360,4.0,14.0,62,0.00,,,0.00,Wunderground v.1.15,2013-08-16 14:39:00,
2013-08-16 10:44:00,71.5,57.3,30.10,WSW,253,0.0,11.0,61,0.00,,,0.00,Wunderground v.1.15,2013-08-16 14:44:00,
2013-08-16 10:49:00,71.7,57.1,30.10,West,268,9.0,13.0,60,0.00,,,0.00,Wunderground v.1.15,2013-08-16 14:49:00,
2013-08-16 10:54:00,71.9,56.8,30.09,NNW,329,7.0,13.0,59,0.00,,,0.00,Wunderground v.1.15,2013-08-16 14:54:00,
2013-08-16 10:59:00,72.1,56.5,30.10,West,277,11.0,15.0,58,0.00,,,0.00,Wunderground v.1.15,2013-08-16 14:59:00,
2013-08-16 11:04:00,72.2,57.5,30.09,NW,323,10.0,11.0,60,0.00,,,0.00,Wunderground v.1.15,2013-08-16 15:04:00,
2013-08-16 11:09:00,72.4,56.3,30.09,WNW,284,2.0,11.0,57,0.00,,,0.00,Wunderground v.1.15,2013-08-16 15:09:00,
2013-08-16 11:14:00,72.5,55.9,30.09,NW,314,7.0,13.0,56,0.00,,,0.00,Wunderground v.1.15,2013-08-16 15:14:00,
2013-08-16 11:19:00,72.8,57.6,30.10,North,355,4.0,13.0,59,0.00,,,0.00,Wunderground v.1.15,2013-08-16 15:19:00,
2013-08-16 11:24:00,73.0,57.3,30.10,South,190,1.0,8.0,58,0.00,,,0.00,Wunderground v.1.15,2013-08-16 15:24:00,
2013-08-16 11:29:00,73.2,56.1,30.10,West,273,6.0,11.0,55,0.00,,,0.00,Wunderground v.1.15,2013-08-16 15:29:00,
2013-08-16 11:34:00,73.4,57.2,30.10,West,266,4.0,13.0,57,0.00,,,0.00,Wunderground v.1.15,2013-08-16 15:34:00,
2013-08-16 11:39:00,73.6,56.9,30.10,WNW,294,5.0,13.0,56,0.00,,,0.00,Wunderground v.1.15,2013-08-16 15:39:00,
2013-08-16 11:44:00,73.7,57.5,30.10,West,280,7.0,13.0,57,0.00,,,0.00,Wunderground v.1.15,2013-08-16 15:44:00,
2013-08-16 11:49:00,73.7,55.0,30.10,NNW,333,7.0,18.0,52,0.00,,,0.00,Wunderground v.1.15,2013-08-16 15:49:00,
2013-08-16 11:54:00,73.6,54.4,30.10,NW,317,3.0,10.0,51,0.00,,,0.00,Wunderground v.1.15,2013-08-16 15:54:00,
2013-08-16 11:59:00,73.7,55.0,30.10,SSW,209,3.0,10.0,52,0.00,,,0.00,Wunderground v.1.15,2013-08-16 15:59:00,
2013-08-16 12:04:00,73.8,55.1,30.10,SW,223,11.0,12.0,52,0.00,,,0.00,Wunderground v.1.15,2013-08-16 16:04:00,
2013-08-16 12:10:00,74.0,54.2,30.10,West,272,4.0,5.0,50,0.00,,,0.00,Wunderground v.1.15,2013-08-16 16:10:00,
2013-08-16 12:15:00,74.2,53.8,30.10,West,275,5.0,11.0,49,0.00,,,0.00,Wunderground v.1.15,2013-08-16 16:15:00,
2013-08-16 12:20:00,74.4,55.6,30.10,SE,138,4.0,6.0,52,0.00,,,0.00,Wunderground v.1.15,2013-08-16 16:20:00,
2013-08-16 12:25:00,74.6,54.7,30.10,West,265,10.0,12.0,50,0.00,,,0.00,Wunderground v.1.15,2013-08-16 16:25:00,
2013-08-16 12:30:00,74.8,54.4,30.10,NNW,340,8.0,8.0,49,0.00,,,0.00,Wunderground v.1.15,2013-08-16 16:30:00,
2013-08-16 12:35:00,74.9,55.6,30.10,West,272,6.0,14.0,51,0.00,,,0.00,Wunderground v.1.15,2013-08-16 16:35:00,
2013-08-16 12:40:00,74.9,55.0,30.10,NW,322,5.0,10.0,50,0.00,,,0.00,Wunderground v.1.15,2013-08-16 16:40:00,
2013-08-16 12:45:00,75.0,55.1,30.10,WSW,245,4.0,16.0,50,0.00,,,0.00,Wunderground v.1.15,2013-08-16 16:45:00,
2013-08-16 12:50:00,74.9,53.9,30.10,SSW,213,4.0,8.0,48,0.00,,,0.00,Wunderground v.1.15,2013-08-16 16:50:00,
2013-08-16 12:55:00,74.9,53.3,30.10,NW,314,15.0,15.0,47,0.00,,,0.00,Wunderground v.1.15,2013-08-16 16:55:00,
2013-08-16 13:00:00,74.9,53.3,30.10,NW,314,15.0,15.0,47,0.00,,,0.00,Wunderground v.1.15,2013-08-16 17:00:00,
2013-08-16 13:05:00,74.9,53.3,30.10,NW,314,15.0,15.0,47,0.00,,,0.00,Wunderground v.1.15,2013-08-16 17:05:00,
2013-08-16 13:10:00,74.9,53.3,30.10,NW,314,15.0,15.0,47,0.00,,,0.00,Wunderground v.1.15,2013-08-16 17:10:00,
2013-08-16 13:15:00,74.9,53.3,30.10,NW,314,15.0,15.0,47,0.00,,,0.00,Wunderground v.1.15,2013-08-16 17:15:00,
2013-08-16 13:20:00,74.9,53.3,30.10,NW,314,15.0,15.0,47,0.00,,,0.00,Wunderground v.1.15,2013-08-16 17:20:00,
2013-08-16 13:25:00,74.9,53.3,30.10,NW,314,15.0,15.0,47,0.00,,,0.00,Wunderground v.1.15,2013-08-16 17:25:00,
2013-08-16 13:31:00,74.9,53.3,30.10,NW,314,15.0,15.0,47,0.00,,,0.00,Wunderground v.1.15,2013-08-16 17:31:00,
2013-08-16 13:36:00,74.9,53.3,30.10,NW,314,15.0,15.0,47,0.00,,,0.00,Wunderground v.1.15,2013-08-16 17:36:00,
2013-08-16 13:41:00,74.9,53.3,30.10,NW,314,15.0,15.0,47,0.00,,,0.00,Wunderground v.1.15,2013-08-16 17:41:00,
2013-08-16 13:46:00,74.9,53.3,30.10,NW,314,15.0,15.0,47,0.00,,,0.00,Wunderground v.1.15,2013-08-16 17:46:00,
2013-08-16 13:51:00,74.9,53.3,30.10,NW,314,15.0,15.0,47,0.00,,,0.00,Wunderground v.1.15,2013-08-16 17:51:00,
2013-08-16 13:56:00,74.9,53.3,30.10,NW,314,15.0,15.0,47,0.00,,,0.00,Wunderground v.1.15,2013-08-16 17:56:00,
2013-08-16 14:01:00,74.9,53.3,30.10,NW,314,15.0,15.0,47,0.00,,,0.00,Wunderground v.1.15,2013-08-16 18:01:00,
2013-08-16 14:06:00,76.1,56.7,30.10,NNW,329,4.0,15.0,51,0.06,,,0.36,Wunderground v.1.15,2013-08-16 18:06:00,
2013-08-16 14:12:00,76.2,56.7,30.10,WNW,290,8.0,8.0,51,0.04,,,0.36,Wunderground v.1.15,2013-08-16 18:12:00,
2013-08-16 14:18:00,76.2,56.2,30.10,NW,314,3.0,5.0,50,0.00,,,0.36,Wunderground v.1.15,2013-08-16 18:18:00,
2013-08-16 14:23:00,76.1,56.7,30.10,West,268,8.0,8.0,51,0.00,,,0.36,Wunderground v.1.15,2013-08-16 18:23:00,
2013-08-16 14:28:00,76.0,56.6,30.09,WSW,241,5.0,5.0,51,0.00,,,0.36,Wunderground v.1.15,2013-08-16 18:28:00,
2013-08-16 14:33:00,76.0,56.6,30.09,West,269,4.0,10.0,51,0.00,,,0.36,Wunderground v.1.15,2013-08-16 18:33:00,
2013-08-16 14:38:00,75.9,55.9,30.09,SW,225,3.0,4.0,50,0.00,,,0.36,Wunderground v.1.15,2013-08-16 18:38:00,
2013-08-16 14:43:00,75.8,55.8,30.09,WNW,298,3.0,11.0,50,0.00,,,0.36,Wunderground v.1.15,2013-08-16 18:43:00,
2013-08-16 14:48:00,75.8,55.8,30.09,NNW,327,5.0,6.0,50,0.00,,,0.36,Wunderground v.1.15,2013-08-16 18:48:00,
2013-08-16 14:53:00,75.8,55.3,30.09,NNW,338,10.0,11.0,49,0.00,,,0.36,Wunderground v.1.15,2013-08-16 18:53:00,
2013-08-16 14:58:00,75.8,55.3,30.09,North,360,8.0,10.0,49,0.00,,,0.36,Wunderground v.1.15,2013-08-16 18:58:00,
2013-08-16 15:03:00,75.9,55.4,30.09,WNW,301,3.0,10.0,49,0.00,,,0.36,Wunderground v.1.15,2013-08-16 19:03:00,
2013-08-16 15:08:00,76.0,56.6,30.09,NNW,341,8.0,10.0,51,0.00,,,0.36,Wunderground v.1.15,2013-08-16 19:08:00,
2013-08-16 15:13:00,76.1,56.7,30.09,NW,317,4.0,9.0,51,0.00,,,0.36,Wunderground v.1.15,2013-08-16 19:13:00,
2013-08-16 15:18:00,76.0,55.5,30.09,North,349,6.0,9.0,49,0.00,,,0.36,Wunderground v.1.15,2013-08-16 19:18:00,
2013-08-16 15:23:00,76.1,56.7,30.09,NW,317,3.0,11.0,51,0.00,,,0.36,Wunderground v.1.15,2013-08-16 19:23:00,
2013-08-16 15:28:00,76.1,56.1,30.09,WNW,300,3.0,11.0,50,0.00,,,0.36,Wunderground v.1.15,2013-08-16 19:28:00,
2013-08-16 15:33:00,76.0,55.5,30.09,NNW,327,1.0,9.0,49,0.00,,,0.36,Wunderground v.1.15,2013-08-16 19:33:00,
2013-08-16 15:38:00,76.0,56.0,30.09,NW,317,6.0,9.0,50,0.00,,,0.36,Wunderground v.1.15,2013-08-16 19:38:00,
2013-08-16 15:43:00,75.8,53.5,30.09,NNW,329,3.0,7.0,46,0.00,,,0.36,Wunderground v.1.15,2013-08-16 19:43:00,
2013-08-16 15:48:00,75.8,54.7,30.08,NW,309,1.0,9.0,48,0.00,,,0.36,Wunderground v.1.15,2013-08-16 19:48:00,
2013-08-16 15:53:00,75.7,55.2,30.09,WSW,256,2.0,6.0,49,0.00,,,0.36,Wunderground v.1.15,2013-08-16 19:53:00,
2013-08-16 15:58:00,75.6,53.9,30.09,West,268,8.0,8.0,47,0.00,,,0.36,Wunderground v.1.15,2013-08-16 19:58:00,
2013-08-16 16:03:00,75.4,52.6,30.08,West,272,2.0,8.0,45,0.00,,,0.36,Wunderground v.1.15,2013-08-16 20:03:00,
2013-08-16 16:08:00,75.4,54.9,30.08,WSW,256,5.0,8.0,49,0.00,,,0.36,Wunderground v.1.15,2013-08-16 20:08:00,
2013-08-16 16:13:00,75.3,55.4,30.08,West,280,1.0,6.0,50,0.00,,,0.36,Wunderground v.1.15,2013-08-16 20:13:00,
2013-08-16 16:18:00,75.1,53.5,30.08,NW,309,5.0,11.0,47,0.00,,,0.36,Wunderground v.1.15,2013-08-16 20:18:00,
2013-08-16 16:23:00,75.1,53.5,30.08,WNW,288,3.0,8.0,47,0.00,,,0.36,Wunderground v.1.15,2013-08-16 20:23:00,
2013-08-16 16:28:00,75.1,54.1,30.08,West,263,1.0,14.0,48,0.00,,,0.36,Wunderground v.1.15,2013-08-16 20:28:00,
2013-08-16 16:33:00,75.1,54.6,30.08,NW,313,3.0,7.0,49,0.00,,,0.36,Wunderground v.1.15,2013-08-16 20:33:00,
2013-08-16 16:38:00,75.1,53.5,30.08,West,260,2.0,8.0,47,0.00,,,0.36,Wunderground v.1.15,2013-08-16 20:38:00,
2013-08-16 16:43:00,75.1,54.1,30.08,West,280,5.0,10.0,48,0.00,,,0.36,Wunderground v.1.15,2013-08-16 20:43:00,
2013-08-16 16:48:00,75.1,52.9,30.08,WNW,284,4.0,10.0,46,0.00,,,0.36,Wunderground v.1.15,2013-08-16 20:48:00,
2013-08-16 16:53:00,75.2,54.2,30.08,West,269,2.0,13.0,48,0.00,,,0.36,Wunderground v.1.15,2013-08-16 20:53:00,
2013-08-16 16:58:00,75.2,54.2,30.08,SSW,205,3.0,13.0,48,0.00,,,0.36,Wunderground v.1.15,2013-08-16 20:58:00,
2013-08-16 17:03:00,75.3,53.7,30.08,WNW,296,2.0,9.0,47,0.00,,,0.36,Wunderground v.1.15,2013-08-16 21:03:00,
2013-08-16 17:08:00,75.2,54.2,30.08,WNW,289,7.0,9.0,48,0.00,,,0.36,Wunderground v.1.15,2013-08-16 21:08:00,
2013-08-16 17:13:00,75.2,54.2,30.08,SW,232,3.0,7.0,48,0.00,,,0.36,Wunderground v.1.15,2013-08-16 21:13:00,
2013-08-16 17:18:00,75.1,53.5,30.08,NW,315,0.0,7.0,47,0.00,,,0.36,Wunderground v.1.15,2013-08-16 21:18:00,
2013-08-16 17:23:00,75.1,54.1,30.08,West,260,4.0,9.0,48,0.00,,,0.36,Wunderground v.1.15,2013-08-16 21:23:00,
2013-08-16 17:28:00,74.9,53.9,30.08,WSW,245,4.0,10.0,48,0.00,,,0.36,Wunderground v.1.15,2013-08-16 21:28:00,
2013-08-16 17:33:00,74.9,55.0,30.09,NNW,327,5.0,8.0,50,0.00,,,0.36,Wunderground v.1.15,2013-08-16 21:33:00,
2013-08-16 17:38:00,74.8,54.4,30.09,NW,317,2.0,9.0,49,0.00,,,0.36,Wunderground v.1.15,2013-08-16 21:38:00,
2013-08-16 17:43:00,74.8,54.4,30.09,West,261,2.0,6.0,49,0.00,,,0.36,Wunderground v.1.15,2013-08-16 21:43:00,
2013-08-16 17:48:00,74.8,55.5,30.09,WNW,286,5.0,9.0,51,0.00,,,0.36,Wunderground v.1.15,2013-08-16 21:48:00,
2013-08-16 17:53:00,74.9,55.6,30.09,WSW,254,6.0,10.0,51,0.00,,,0.36,Wunderground v.1.15,2013-08-16 21:53:00,
2013-08-16 17:58:00,74.9,55.0,30.09,West,277,0.0,10.0,50,0.00,,,0.36,Wunderground v.1.15,2013-08-16 21:58:00,
2013-08-16 18:03:00,74.8,54.9,30.09,West,273,1.0,4.0,50,0.00,,,0.36,Wunderground v.1.15,2013-08-16 22:03:00,
2013-08-16 18:08:00,74.8,53.8,30.09,WNW,287,3.0,6.0,48,0.00,,,0.36,Wunderground v.1.15,2013-08-16 22:08:00,
2013-08-16 18:13:00,74.7,54.3,30.09,NW,316,4.0,8.0,49,0.00,,,0.36,Wunderground v.1.15,2013-08-16 22:13:00,
2013-08-16 18:18:00,74.7,54.3,30.09,WNW,293,3.0,8.0,49,0.00,,,0.36,Wunderground v.1.15,2013-08-16 22:18:00,
2013-08-16 18:23:00,74.7,55.4,30.09,SSW,209,1.0,4.0,51,0.00,,,0.36,Wunderground v.1.15,2013-08-16 22:23:00,
2013-08-16 18:28:00,74.7,54.8,30.09,WSW,252,3.0,8.0,50,0.00,,,0.36,Wunderground v.1.15,2013-08-16 22:28:00,
2013-08-16 18:33:00,74.7,54.8,30.09,WSW,257,4.0,10.0,50,0.00,,,0.36,Wunderground v.1.15,2013-08-16 22:33:00,
2013-08-16 18:38:00,74.6,54.2,30.09,West,281,1.0,10.0,49,0.00,,,0.36,Wunderground v.1.15,2013-08-16 22:38:00,
2013-08-16 18:43:00,74.6,54.2,30.09,West,275,3.0,6.0,49,0.00,,,0.36,Wunderground v.1.15,2013-08-16 22:43:00,
2013-08-16 18:48:00,74.5,54.1,30.10,SW,223,3.0,7.0,49,0.00,,,0.36,Wunderground v.1.15,2013-08-16 22:48:00,
2013-08-16 18:53:00,74.4,54.0,30.10,NW,323,3.0,6.0,49,0.00,,,0.36,Wunderground v.1.15,2013-08-16 22:53:00,
2013-08-16 18:58:00,74.3,55.0,30.10,WNW,288,4.0,6.0,51,0.00,,,0.36,Wunderground v.1.15,2013-08-16 22:58:00,
2013-08-16 19:03:00,74.2,54.4,30.11,West,268,0.0,5.0,50,0.00,,,0.36,Wunderground v.1.15,2013-08-16 23:03:00,
2013-08-16 19:08:00,74.0,54.7,30.10,West,268,1.0,5.0,51,0.00,,,0.36,Wunderground v.1.15,2013-08-16 23:08:00,
2013-08-16 19:13:00,73.9,54.6,30.11,WNW,293,1.0,5.0,51,0.00,,,0.36,Wunderground v.1.15,2013-08-16 23:13:00,
2013-08-16 19:18:00,73.7,55.0,30.11,West,281,0.0,5.0,52,0.00,,,0.36,Wunderground v.1.15,2013-08-16 23:18:00,
2013-08-16 19:23:00,73.6,54.9,30.11,West,280,1.0,3.0,52,0.00,,,0.36,Wunderground v.1.15,2013-08-16 23:23:00,
2013-08-16 19:28:00,73.4,54.7,30.11,West,265,0.0,5.0,52,0.00,,,0.36,Wunderground v.1.15,2013-08-16 23:28:00,
2013-08-16 19:33:00,73.3,55.1,30.10,West,266,0.0,1.0,53,0.00,,,0.36,Wunderground v.1.15,2013-08-16 23:33:00,
2013-08-16 19:38:00,73.1,54.9,30.11,West,266,0.0,1.0,53,0.00,,,0.36,Wunderground v.1.15,2013-08-16 23:38:00,
2013-08-16 19:43:00,72.9,55.3,30.11,West,265,0.0,2.0,54,0.00,,,0.36,Wunderground v.1.15,2013-08-16 23:43:00,
2013-08-16 19:48:00,72.8,55.2,30.11,West,266,0.0,2.0,54,0.00,,,0.36,Wunderground v.1.15,2013-08-16 23:48:00,
2013-08-16 19:53:00,72.6,55.0,30.11,West,266,1.0,1.0,54,0.00,,,0.36,Wunderground v.1.15,2013-08-16 23:53:00,
2013-08-16 19:58:00,72.4,54.8,30.11,West,265,1.0,2.0,54,0.00,,,0.36,Wunderground v.1.15,2013-08-16 23:58:00,
2013-08-16 20:03:00,72.2,55.1,30.11,West,266,0.0,2.0,55,0.00,,,0.36,Wunderground v.1.15,2013-08-17 00:03:00,
2013-08-16 20:08:00,72.0,54.9,30.11,West,266,0.0,2.0,55,0.00,,,0.36,Wunderground v.1.15,2013-08-17 00:08:00,
2013-08-16 20:13:00,71.8,55.3,30.11,West,265,0.0,0.0,56,0.00,,,0.36,Wunderground v.1.15,2013-08-17 00:13:00,
2013-08-16 20:18:00,71.6,55.1,30.11,West,266,0.0,0.0,56,0.00,,,0.36,Wunderground v.1.15,2013-08-17 00:18:00,
2013-08-16 20:23:00,71.3,54.8,30.11,West,266,0.0,0.0,56,0.00,,,0.36,Wunderground v.1.15,2013-08-17 00:23:00,
2013-08-16 20:28:00,71.2,54.7,30.12,West,266,0.0,0.0,56,0.00,,,0.36,Wunderground v.1.15,2013-08-17 00:28:00,
2013-08-16 20:33:00,71.0,55.0,30.12,West,266,0.0,0.0,57,0.00,,,0.36,Wunderground v.1.15,2013-08-17 00:33:00,
2013-08-16 20:38:00,70.8,55.3,30.12,West,266,0.0,0.0,58,0.00,,,0.36,Wunderground v.1.15,2013-08-17 00:38:00,
2013-08-16 20:43:00,70.6,55.1,30.12,West,265,0.0,0.0,58,0.00,,,0.36,Wunderground v.1.15,2013-08-17 00:43:00,
2013-08-16 20:48:00,70.4,55.4,30.13,West,267,0.0,0.0,59,0.00,,,0.36,Wunderground v.1.15,2013-08-17 00:48:00,
2013-08-16 20:53:00,70.2,55.2,30.13,West,266,0.0,0.0,59,0.00,,,0.36,Wunderground v.1.15,2013-08-17 00:53:00,
2013-08-16 20:58:00,70.0,55.5,30.13,West,265,0.0,0.0,60,0.00,,,0.36,Wunderground v.1.15,2013-08-17 00:58:00,
2013-08-16 21:03:00,69.8,55.3,30.14,SSW,200,2.0,4.0,60,0.00,,,0.36,Wunderground v.1.15,2013-08-17 01:03:00,
2013-08-16 21:08:00,69.6,55.6,30.14,SSW,207,4.0,5.0,61,0.00,,,0.36,Wunderground v.1.15,2013-08-17 01:08:00,
2013-08-16 21:13:00,69.4,55.4,30.14,South,191,1.0,4.0,61,0.00,,,0.36,Wunderground v.1.15,2013-08-17 01:13:00,
2013-08-16 21:19:00,69.1,55.1,30.14,WSW,245,0.0,4.0,61,0.00,,,0.36,Wunderground v.1.15,2013-08-17 01:19:00,
2013-08-16 21:24:00,68.9,55.3,30.14,WSW,245,0.0,2.0,62,0.00,,,0.36,Wunderground v.1.15,2013-08-17 01:24:00,
2013-08-16 21:29:00,68.8,55.2,30.14,WSW,245,0.0,2.0,62,0.00,,,0.36,Wunderground v.1.15,2013-08-17 01:29:00,
2013-08-16 21:34:00,68.6,55.5,30.14,WSW,245,0.0,2.0,63,0.00,,,0.36,Wunderground v.1.15,2013-08-17 01:34:00,
2013-08-16 21:39:00,68.5,55.4,30.14,SW,234,1.0,2.0,63,0.00,,,0.36,Wunderground v.1.15,2013-08-17 01:39:00,
2013-08-16 21:44:00,68.4,55.3,30.14,SW,234,0.0,2.0,63,0.00,,,0.36,Wunderground v.1.15,2013-08-17 01:44:00,
2013-08-16 21:49:00,68.3,55.6,30.14,SW,234,0.0,2.0,64,0.00,,,0.36,Wunderground v.1.15,2013-08-17 01:49:00,
2013-08-16 21:54:00,68.1,55.5,30.14,SW,234,0.0,1.0,64,0.00,,,0.36,Wunderground v.1.15,2013-08-17 01:54:00,
2013-08-16 21:59:00,68.0,55.8,30.14,SW,234,0.0,1.0,65,0.00,,,0.36,Wunderground v.1.15,2013-08-17 01:59:00,
2013-08-16 22:04:00,67.9,55.7,30.14,SW,234,0.0,0.0,65,0.00,,,0.36,Wunderground v.1.15,2013-08-17 02:04:00,
2013-08-16 22:09:00,67.8,56.0,30.14,SW,234,0.0,0.0,66,0.00,,,0.36,Wunderground v.1.15,2013-08-17 02:09:00,
2013-08-16 22:14:00,67.7,55.9,30.14,SW,234,0.0,2.0,66,0.00,,,0.36,Wunderground v.1.15,2013-08-17 02:14:00,
2013-08-16 22:19:00,67.6,55.8,30.15,SSW,202,0.0,3.0,66,0.00,,,0.36,Wunderground v.1.15,2013-08-17 02:19:00,
2013-08-16 22:24:00,67.4,56.1,30.15,SW,221,0.0,5.0,67,0.00,,,0.36,Wunderground v.1.15,2013-08-17 02:24:00,
2013-08-16 22:29:00,67.2,55.9,30.14,SW,225,0.0,5.0,67,0.00,,,0.36,Wunderground v.1.15,2013-08-17 02:29:00,
2013-08-16 22:34:00,67.1,56.2,30.14,SSW,212,2.0,4.0,68,0.00,,,0.36,Wunderground v.1.15,2013-08-17 02:34:00,
2013-08-16 22:39:00,67.0,56.1,30.15,SW,219,1.0,4.0,68,0.00,,,0.36,Wunderground v.1.15,2013-08-17 02:39:00,
2013-08-16 22:45:00,66.8,56.3,30.15,SW,220,0.0,3.0,69,0.00,,,0.36,Wunderground v.1.15,2013-08-17 02:45:00,
2013-08-16 22:50:00,66.8,56.3,30.15,SW,218,0.0,1.0,69,0.00,,,0.36,Wunderground v.1.15,2013-08-17 02:50:00,
2013-08-16 22:55:00,66.7,56.2,30.15,SSW,203,1.0,3.0,69,0.00,,,0.36,Wunderground v.1.15,2013-08-17 02:55:00,
2013-08-16 23:00:00,66.6,56.5,30.15,SW,232,0.0,1.0,70,0.00,,,0.36,Wunderground v.1.15,2013-08-17 03:00:00,
2013-08-16 23:05:00,66.5,56.4,30.15,WSW,246,0.0,6.0,70,0.00,,,0.36,Wunderground v.1.15,2013-08-17 03:05:00,
2013-08-16 23:10:00,66.5,56.4,30.15,SW,234,0.0,1.0,70,0.00,,,0.36,Wunderground v.1.15,2013-08-17 03:10:00,
2013-08-16 23:15:00,66.3,56.6,30.15,West,260,0.0,5.0,71,0.00,,,0.36,Wunderground v.1.15,2013-08-17 03:15:00,
2013-08-16 23:20:00,66.3,56.6,30.15,West,263,3.0,3.0,71,0.00,,,0.36,Wunderground v.1.15,2013-08-17 03:20:00,
2013-08-16 23:25:00,66.2,56.5,30.15,West,271,1.0,6.0,71,0.00,,,0.36,Wunderground v.1.15,2013-08-17 03:25:00,
2013-08-16 23:30:00,66.1,56.4,30.15,WSW,248,4.0,4.0,71,0.00,,,0.36,Wunderground v.1.15,2013-08-17 03:30:00,
2013-08-16 23:35:00,66.0,56.3,30.15,WSW,245,3.0,6.0,71,0.00,,,0.36,Wunderground v.1.15,2013-08-17 03:35:00,
2013-08-16 23:40:00,65.9,56.6,30.15,SW,223,0.0,2.0,72,0.00,,,0.36,Wunderground v.1.15,2013-08-17 03:40:00,
2013-08-16 23:45:00,65.8,56.5,30.15,WSW,238,1.0,3.0,72,0.00,,,0.36,Wunderground v.1.15,2013-08-17 03:45:00,
2013-08-16 23:50:00,65.7,56.4,30.15,WSW,242,0.0,1.0,72,0.00,,,0.36,Wunderground v.1.15,2013-08-17 03:50:00,
2013-08-16 23:55:00,65.6,56.3,30.15,WSW,251,0.0,5.0,72,0.00,,,0.36,Wunderground v.1.15,2013-08-17 03:55:00,